星链-36321(STARLINK-36321)

导读

STARLINK-36321是美国SpaceX星链星座的卫星,于2026年2月20日发射升空。星链项目旨在构建全球卫星互联网星座,为全球提供高速低延迟的宽带服务,该卫星的入轨将进一步扩充星链星座规模,提升星座的全球覆盖能力与服务稳定性,助力星链网络持续拓展服务范围。

Basic Information
目录编号:
67850
目录名称:
STARLINK-36840
国际标识:
2026-034A
轨道中心:
EARTH
卫星名称:
星链-36321
卫星全名:
星链-36321(STARLINK-36321)
卫星状态:
在轨 (已飞行197 天)
发射日期:
2026-02-20 UTC
国别 :
美国 (US)
星等 :
--
Orbit Information
数据来源 国际轨道数据
星历时间: 2026-09-05T06:51:25+0800
14小时前
查看轨道信息
半长轴: 6840.842km
偏心率: 0.0001258
轨道倾角: 53.161°
近地点辐角 71.791°
升交点赤经 90.044°
平近点角 288.323°
近地点: 461.844km
远地点: 463.566km
周期: 93.848分钟
每日圈数: 15.343996
Detailed Information
固有亮度:
5
最大亮度:
2.5
卫星平台:
Starlink V1.0
覆盖范围:
全球
运营商:
太空探索技术公司
运营商所在国:
美国
制造商(研发单位):
太空探索技术公司
制造商所在国:
美国
使用方式:
暂无
Satellite Introduction
Starlink 计划是 SpaceX 推出的全球卫星互联网项目,通过发射低轨道卫星,为全球尤其是偏远地区提供高速、低延迟的互联网服务。自 2019 年起,Starlink 已部署数千颗卫星,旨在缩小全球数字鸿沟,推动互联网普及。该项目还为军事、航空等行业提供通信支持,带来广泛经济效益。
2D Orbit Map
3D Orbit Map
Orbit Altitude Analysis Chart
Orbit Inclination Analysis Chart
Orbit Comprehensive Analysis Chart
View Comprehensive Chart
Conjunction Data List
Event ID Objects TCA Miss Dist (km) Collision Risk Probability Collision Risk Index (CRI) Action
CDM_260906-233505-226506-785022
2026-09-06T
23:35:37+0000
0.653 km
远距离
6.758466E-5 中风险 0.72
CDM_260906-115205-226506-785022
2026-09-06T
11:52:10+0000
0.683 km
远距离
5.909419E-5 中风险 0.7
CDM_260906-150304-464106-785023
2026-09-06T
15:03:44+0000
0.851 km
远距离
4.25836E-5 中风险 0.68
CDM_260907-151805-926906-785021
2026-09-07T
15:18:19+0000
0.672 km
远距离
3.052563E-5 中风险 0.65
CDM_260906-115805-329206-785021
2026-09-06T
11:58:35+0000
0.583 km
远距离
2.133017E-5 中风险 0.62
CDM_260906-124505-329206-785021
2026-09-06T
12:45:29+0000
0.610 km
远距离
1.847269E-5 中风险 0.6
CDM_260907-160305-920506-785021
2026-09-07T
16:03:10+0000
0.979 km
远距离
1.357046E-5 中风险 0.58
CDM_260906-062704-464106-785023
2026-09-06T
06:27:32+0000
1.360 km
极远距离
8.560331E-6 低风险 0.54
CDM_260907-112305-926906-785021
2026-09-07T
11:23:50+0000
1.217 km
极远距离
4.153014E-6 低风险 0.47
CDM_260906-135003-279106-785022
SEEDS (32791)
2026-09-06T
13:50:33+0000
1.811 km
极远距离
3.734936E-6 低风险 0.46